| time (UTC) | temp C | wind direction | speed KPH | gust KPH | rain 1hr cm | rain 24hr cm | rain mn cm | humidity % | barometer mb |
| 20260503200030 | 18 | 267 | 6.4 | 19.3 | 0.00 | 0.00 | 0.00 | 41 | 1014.8 |
| 20260503194541 | 17 | 234 | 9.7 | 24.1 | 0.00 | 0.00 | 0.00 | 41 | 1015.0 |
| 20260503193032 | 17 | 231 | 8.0 | 19.3 | 0.00 | 0.00 | 0.00 | 37 | 1015.5 |
| 20260503191540 | 17 | 210 | 11.3 | 25.7 | 0.00 | 0.00 | 0.00 | 34 | 1015.9 |
| 20260503190040 | 17 | 281 | 9.7 | 24.1 | 0.00 | 0.00 | 0.00 | 41 | 1016.3 |
| 20260503184530 | 17 | 246 | 11.3 | 25.7 | 0.00 | 0.00 | 0.00 | 34 | 1016.2 |
| 20260503183032 | 17 | 252 | 9.7 | 22.5 | 0.00 | 0.00 | 0.00 | 38 | 1016.6 |
| 20260503181535 | 17 | 238 | 8.0 | 17.7 | 0.00 | 0.00 | 0.00 | 41 | 1016.6 |
| 20260503180037 | 17 | 294 | 4.8 | 17.7 | 0.00 | 0.00 | 0.00 | 37 | 1016.6 |
| 20260503174535 | 16 | 220 | 6.4 | 19.3 | 0.00 | 0.00 | 0.00 | 44 | 1016.9 |
| 20260503173034 | 16 | 235 | 6.4 | 19.3 | 0.00 | 0.00 | 0.00 | 43 | 1017.3 |
| 20260503171532 | 15 | 249 | 4.8 | 17.7 | 0.00 | 0.00 | 0.00 | 47 | 1017.7 |
| 20260503081536 | 2 | 0 | 0.0 | 3.2 | 0.00 | 0.00 | 0.00 | 80 | 1017.5 |
| 20260503071532 | 2 | 0 | 0.0 | 0.0 | 0.00 | 0.00 | 0.00 | 80 | 1017.3 |
| 20260503054551 | 2 | 0 | 0.0 | 0.0 | 0.00 | 0.00 | 0.00 | 76 | 1017.8 |
| 20260503053041 | 2 | 0 | 0.0 | 0.0 | 0.00 | 0.00 | 0.00 | 76 | 1017.8 |
| 20260503051534 | 2 | 204 | 0.0 | 3.2 | 0.00 | 0.00 | 0.00 | 77 | 1017.8 |
| 20260503050031 | 3 | 90 | 0.0 | 3.2 | 0.00 | 0.00 | 0.00 | 74 | 1017.8 |
| 20260503044532 | 3 | 0 | 0.0 | 0.0 | 0.00 | 0.00 | 0.00 | 74 | 1017.7 |
| 20260503043036 | 3 | 0 | 0.0 | 0.0 | 0.00 | 0.00 | 0.00 | 73 | 1017.7 |
| 20260503041530 | 3 | 0 | 0.0 | 0.0 | 0.00 | 0.00 | 0.00 | 72 | 1017.8 |
| 20260503040037 | 3 | 0 | 0.0 | 0.0 | 0.00 | 0.00 | 0.00 | 71 | 1018.0 |
| 20260503034535 | 4 | 0 | 0.0 | 3.2 | 0.00 | 0.00 | 0.00 | 69 | 1018.1 |
| 20260503033033 | 5 | 0 | 0.0 | 3.2 | 0.00 | 0.00 | 0.00 | 66 | 1018.1 |
| 20260503031537 | 6 | 0 | 0.0 | 3.2 | 0.00 | 0.00 | 0.00 | 64 | 1018.1 |
| 20260503030032 | 6 | 0 | 0.0 | 0.0 | 0.00 | 0.00 | 0.00 | 58 | 1018.0 |
| 20260503024535 | 7 | 0 | 0.0 | 3.2 | 0.00 | 0.00 | 0.00 | 57 | 1017.9 |
| 20260503023032 | 7 | 0 | 0.0 | 0.0 | 0.00 | 0.00 | 0.00 | 58 | 1017.9 |
| 20260503021534 | 7 | 90 | 0.0 | 3.2 | 0.00 | 0.00 | 0.00 | 54 | 1017.8 |
| 20260503020034 | 7 | 103 | 1.6 | 4.8 | 0.00 | 0.00 | 0.00 | 53 | 1017.6 |
| 20260503014530 | 7 | 85 | 1.6 | 4.8 | 0.00 | 0.00 | 0.00 | 53 | 1017.3 |
| 20260503013030 | 7 | 85 | 3.2 | 4.8 | 0.00 | 0.00 | 0.00 | 52 | 1017.2 |
| 20260503011534 | 8 | 90 | 3.2 | 6.4 | 0.00 | 0.00 | 0.00 | 51 | 1017.1 |
| 20260503010037 | 8 | 77 | 4.8 | 6.4 | 0.00 | 0.00 | 0.00 | 50 | 1017.0 |
| 20260503004534 | 8 | 77 | 3.2 | 11.3 | 0.00 | 0.00 | 0.00 | 48 | 1016.9 |
| 20260503003030 | 9 | 85 | 3.2 | 9.7 | 0.00 | 0.00 | 0.00 | 47 | 1016.9 |
| 20260503001531 | 10 | 96 | 3.2 | 9.7 | 0.00 | 0.00 | 0.00 | 46 | 1016.5 |
| 20260503000035 | 10 | 94 | 4.8 | 14.5 | 0.00 | 0.00 | 0.00 | 43 | 1016.3 |
| 20260502234547 | 10 | 85 | 6.4 | 16.1 | 0.00 | 0.00 | 0.00 | 42 | 1016.2 |
| 20260502233034 | 11 | 90 | 3.2 | 12.9 | 0.00 | 0.00 | 0.00 | 41 | 1016.1 |
| 20260502231534 | 11 | 73 | 4.8 | 16.1 | 0.00 | 0.00 | 0.00 | 42 | 1016.1 |
| 20260502230031 | 11 | 114 | 6.4 | 17.7 | 0.00 | 0.00 | 0.00 | 40 | 1016.0 |
| 20260502224530 | 12 | 34 | 4.8 | 17.7 | 0.00 | 0.00 | 0.00 | 39 | 1015.9 |
| 20260502223030 | 11 | 77 | 4.8 | 17.7 | 0.00 | 0.00 | 0.00 | 39 | 1015.9 |
| 20260502221535 | 12 | 65 | 4.8 | 19.3 | 0.00 | 0.00 | 0.00 | 36 | 1016.0 |
| 20260502220035 | 12 | 121 | 6.4 | 20.9 | 0.00 | 0.00 | 0.00 | 38 | 1015.9 |
| 20260502214540 | 11 | 258 | 1.6 | 14.5 | 0.00 | 0.00 | 0.00 | 42 | 1015.8 |
| 20260502213033 | 11 | 283 | 4.8 | 17.7 | 0.00 | 0.00 | 0.00 | 39 | 1015.9 |
| 20260502211538 | 12 | 259 | 4.8 | 16.1 | 0.00 | 0.00 | 0.00 | 40 | 1015.7 |
| 20260502210032 | 12 | 252 | 3.2 | 14.5 | 0.00 | 0.00 | 0.00 | 38 | 1015.7 |
| 20260502204534 | 13 | 117 | 3.2 | 19.3 | 0.00 | 0.00 | 0.00 | 38 | 1015.8 |
| 20260502203032 | 13 | 262 | 4.8 | 19.3 | 0.00 | 0.00 | 0.00 | 35 | 1015.6 |
| 20260502201532 | 13 | 250 | 6.4 | 20.9 | 0.00 | 0.00 | 0.00 | 38 | 1015.7 |